Regional Weather Roundup
Issued by NWS

Home | Current Version | Previous Version | Graphics & Text | Print | Product List | Glossary Off
Versions: 1 2 3 4 5 6 7 8 9 10 11 12 13 14 15 16 17 18 19 20 21 22 23 24 25 26 27 28 29 30 31 32 33 34 35 36 37 38 39 40 41 42 43 44 45 46 47 48 49 50

000
ASUS45 KBOU 222107
RWRCO

WEATHER ROUNDUP FOR COLORADO
NATIONAL WEATHER SERVICE DENVER/BOULDER CO
300 PM MDT FRI AUG 22 2014

NOTE: "FAIR" INDICATES FEW OR NO CLOUDS BELOW 12000 FEET WITH NO
SIGNIFICANT WEATHER AND/OR OBSTRUCTIONS TO VISIBILITY.

COZ001>005-013-030-031-222200-
...NORTHWEST COLORADO...

CITY           SKY/WX    TMP DP  RH WIND       PRES   REMARKS
CRAIG          RAIN      61  53  75 NW7       30.12R
HAYDEN         CLOUDY    72  41  33 CALM      30.11F
MEEKER         CLOUDY    71  46  40 S13       30.11F
MOUNT WERNER   NOT AVBL
STEAMBOAT SPGS CLOUDY    71  46  40 SE10      30.13F
WALDEN         CLOUDY    64  39  39 S13       30.21F
$$

COZ006>008-011-222200-
...WEST CENTRAL VALLEYS...

CITY           SKY/WX    TMP DP  RH WIND       PRES   REMARKS
GRAND JUNCTION CLOUDY    76  48  37 SW9       30.03F
MONTROSE       CLOUDY    73  51  46 N5        30.11F
EAGLE          CLOUDY    68  46  45 CALM      30.17F
RIFLE          CLOUDY    74  47  38 CALM      30.07F
DELTA          CLOUDY    76  49  37 SW3       30.08F
NUCLA          CLOUDY    72  48  43 E7        30.13F
$$

COZ017>023-064>068-222200-
...SOUTHWEST COLORADO...

CITY           SKY/WX    TMP DP  RH WIND       PRES   REMARKS
DURANGO        PTSUNNY   69  48  47 SE12G21   30.21F
CORTEZ         PTSUNNY   63  52  67 VRB5      30.15R
PAGOSA SPRINGS DRIZZLE   58  51  77 E5        30.30F
TELLURIDE      CLOUDY    61  39  44 SE6       30.30F
WOLF CREEK PAS NOT AVBL
$$

COZ009-010-012-014-032>034-037-058>063-222200-
...CENTRAL COLORADO...

CITY           SKY/WX    TMP DP  RH WIND       PRES   REMARKS
ASPEN          CLOUDY    66  42  41 S12       30.22F
BUENA VISTA    DRIZZLE   58  47  68 SE15G23   30.29F
COPPER MTN     CLOUDY    54  41  62 S21       30.49F
BERTHOUD PASS  CLOUDY    39  37  93 SE9       30.54F THUNDER
COTTONWOOD PAS CLOUDY    55  46  71 SE9       30.39F
GUNNISON       CLOUDY    63  46  55 E13       30.25F
KREMMLING      CLOUDY    70  46  43 SE6       30.20F
LEADVILLE      CLOUDY    53  43  68 S10       30.36F
MONARCH PASS   FOG       43  41  93 S7        30.62F VSB<1/4
SALIDA         CLOUDY    58  52  79 CALM      30.35F
SUNLIGHT       CLOUDY    54  48  82 CALM      30.43F
WILKERSON PASS NOT AVBL
$$

COZ069>075-222200-
...SAN LUIS VALLEY/SANGRE DE CRISTO MOUNTAINS...

CITY           SKY/WX    TMP DP  RH WIND       PRES   REMARKS
ALAMOSA        LGT RAIN  54  51  90 W5        30.30F
LA VETA PASS   NOT AVBL
SAGUACHE       LGT RAIN  54  52  94 S8        30.33F
$$

COZ035-036-038>040-222200-
...NORTHERN COLORADO FRONT RANGE...

CITY           SKY/WX    TMP DP  RH WIND       PRES   REMARKS
DENVER INTL AP LGT RAIN  67  62  84 SE7       30.12F
DMNS CITY PARK   N/A     69  58  68 S7        30.10F
AURORA         CLOUDY    67  60  79 SE3       30.14F
FRONT RANGE AP RAIN      68  63  83 SE7       30.14F
ERIE MUNI ARPT LGT RAIN  72  54  54 SE13      30.10F
BOULDER MUN AP CLOUDY    72  52  49 SE6       30.10F
CENTENNIAL     LGT RAIN  68  58  70 SE7       30.14F
BROOMFIELD     NOT AVBL
FORT COLLINS   CLOUDY    73  57  56 SE13      30.09F
LONGMONT       CLOUDY    75  55  49 SE7       30.11F
$$

COZ041-046-047-076>085-087-088-222200-
...PIKES PEAK/PALMER DIVIDE AND SOUTHERN FOOTHILLS...

CITY           SKY/WX    TMP DP  RH WIND       PRES   REMARKS
COLO. SPRINGS  CLOUDY    75  54  47 W8        30.16F
A. F. ACADEMY  MOSUNNY   68  55  64 S6        30.17F
ELLICOTT       CLOUDY    73  56  54 S5        30.12F
FALCON         CLOUDY    59  55  87 NE6       30.22F
FORT CARSON    CLOUDY    72  54  53 SW5       30.14F
LIMON          TSTM      72  56  57 E23G30    30.08F
MONUMENT HILL  LGT RAIN  55  52  88 NE7       30.22F
TRINIDAD       TSTM      64  58  80 W21G28    30.15R
$$

COZ042>045-048>051-090-091-222200-
...NORTHEAST COLORADO...

CITY           SKY/WX    TMP DP  RH WIND       PRES   REMARKS
GREELEY ARPT   CLOUDY    73  57  56 SE12      30.09F
AKRON          PTSUNNY   74  57  55 NE10      30.09F
BURLINGTON     PTSUNNY   76  64  66 E15G28    29.99F THUNDER
WRAY             N/A     82  52  34 NE15G21   30.04F
STERLING       PTSUNNY   70  64  83 CALM      30.06F
HOLYOKE        NOT AVBL
FORT MORGAN    CLOUDY    67  59  74 E6        30.09F
$$

COZ086-089-092>099-222200-
...SOUTHEAST COLORADO...

CITY           SKY/WX    TMP DP  RH WIND       PRES   REMARKS
PUEBLO         CLOUDY    80  57  45 N10       30.05F
LA JUNTA       MOSUNNY   87  58  37 MISG      29.97F
LAMAR          SUNNY     90  62  39 NE10      29.92F
SPRINGFIELD      N/A     81  64  56 MISG      29.97F
$$


USA.gov is the U.S. government's official web portal to all federal, state and local government web resources and services.